TimeEST,TemperatureF,Dew PointF,Humidity,Sea Level PressureIn,VisibilityMPH,Wind Direction,Wind SpeedMPH,Gust SpeedMPH,PrecipitationIn,Events,Conditions,WindDirDegrees,DateUTC
12:54 AM,36.0,21.0,55,29.88,10.0,SSE,8.1,-,N/A,,Overcast,160,2013-02-15 05:54:00
1:54 AM,36.0,21.9,57,29.87,10.0,South,4.6,-,N/A,,Overcast,190,2013-02-15 06:54:00
2:54 AM,35.1,25.0,67,29.86,10.0,South,13.8,24.2,N/A,,Overcast,180,2013-02-15 07:54:00
3:54 AM,34.0,28.0,79,29.84,10.0,South,18.4,25.3,N/A,,Overcast,180,2013-02-15 08:54:00
4:54 AM,35.1,28.0,76,29.84,10.0,South,15.0,21.9,N/A,,Overcast,190,2013-02-15 09:54:00
5:54 AM,36.0,28.9,76,29.83,9.0,South,16.1,23.0,0.00,Snow,Light Snow,190,2013-02-15 10:54:00
6:45 AM,35.6,30.2,81,29.82,5.0,South,16.1,23.0,0.00,Snow,Light Snow,180,2013-02-15 11:45:00
6:54 AM,35.6,30.2,81,29.82,9.0,South,13.8,21.9,N/A,,Mostly Cloudy,190,2013-02-15 11:54:00
7:20 AM,37.4,28.4,70,29.81,10.0,South,13.8,24.2,N/A,,Mostly Cloudy,180,2013-02-15 12:20:00
7:54 AM,37.0,28.9,73,29.84,10.0,South,15.0,24.2,N/A,,Mostly Cloudy,180,2013-02-15 12:54:00
8:54 AM,37.0,28.0,70,29.85,9.0,South,16.1,24.2,N/A,,Mostly Cloudy,180,2013-02-15 13:54:00
9:54 AM,39.0,28.0,65,29.86,10.0,South,9.2,-,N/A,,Mostly Cloudy,180,2013-02-15 14:54:00
10:54 AM,41.0,28.0,60,29.85,10.0,South,12.7,18.4,N/A,,Scattered Clouds,180,2013-02-15 15:54:00
11:54 AM,41.0,28.0,60,29.85,10.0,South,16.1,20.7,N/A,,Mostly Cloudy,190,2013-02-15 16:54:00
12:54 PM,42.1,25.0,51,29.85,10.0,SW,9.2,-,N/A,,Mostly Cloudy,220,2013-02-15 17:54:00
1:54 PM,43.0,21.0,42,29.86,10.0,SSW,11.5,25.3,N/A,,Mostly Cloudy,210,2013-02-15 18:54:00
2:54 PM,43.0,19.9,40,29.87,10.0,WSW,11.5,20.7,N/A,,Mostly Cloudy,240,2013-02-15 19:54:00
3:54 PM,42.1,21.0,43,29.89,10.0,WSW,9.2,-,N/A,,Mostly Cloudy,240,2013-02-15 20:54:00
4:54 PM,41.0,21.9,47,29.91,10.0,WSW,11.5,18.4,N/A,,Mostly Cloudy,250,2013-02-15 21:54:00
5:54 PM,39.0,21.0,49,29.92,10.0,WSW,8.1,-,N/A,,Mostly Cloudy,240,2013-02-15 22:54:00
6:54 PM,37.9,19.9,48,29.95,10.0,WNW,4.6,-,N/A,,Mostly Cloudy,290,2013-02-15 23:54:00
7:54 PM,37.0,21.0,52,29.96,10.0,Calm,Calm,-,N/A,,Overcast,0,2013-02-16 00:54:00
8:54 PM,35.1,19.9,54,29.96,10.0,West,5.8,-,N/A,,Mostly Cloudy,260,2013-02-16 01:54:00
9:54 PM,35.1,17.1,48,29.96,10.0,West,8.1,-,N/A,,Clear,280,2013-02-16 02:54:00
10:54 PM,35.1,16.0,46,29.96,10.0,WNW,9.2,-,N/A,,Mostly Cloudy,290,2013-02-16 03:54:00
11:54 PM,33.1,17.1,52,29.97,10.0,WNW,11.5,-,N/A,,Overcast,290,2013-02-16 04:54:00